Location: Invercargill
(46.4000°S, 168.3500°E)
Time: 00:19:51
(UTC+13:00)

Cosmos 2278 Rocket - Pass Details

Date: 24 January 2019
Orbit: 839 x 847 km, 71.0° (Epoch: 22 February)

Event Time Altitude Azimuth Distance (km) Brightness Sun altitude
Rises 23:26:57 0° 201° (SSW) 3,434 6.9 -16.0°
Reaches altitude 10° 23:29:49 10° 189° (S) 2,493 5.6 -16.3°
Maximum altitude 23:34:38 27° 131° (SE) 1,581 3.7 -16.8°
Enters shadow 23:38:16 15° 82° (E) 2,144 3.9 -17.1°
